Regional Weather Roundup
Issued by NWS Northern Indiana

Home | Current Version | Previous Version | Graphics & Text | Print | Product List | Glossary On
Versions: 1 2 3 4 5 6 7 8 9 10 11 12 13 14 15 16 17 18 19 20 21 22 23 24 25 26 27 28 29 30 31 32 33 34 35 36 37 38 39 40 41 42 43 44 45 46 47 48 49 50
000
ASUS43 KIWX 250710
RWRIWX

KIWX WEATHER ROUNDUP
NATIONAL WEATHER SERVICE NORTHERN INDIANA
300 AM EDT MON MAY 25 2015

NOTE: "FAIR" INDICATES FEW OR NO CLOUDS BELOW 12,000 FEET WITH NO
SIGNIFICANT WEATHER AND/OR OBSTRUCTIONS TO VISIBILITY.

* THESE STATIONS ARE NOT UNDER NWS QUALITY CONTROL. THEY ALSO MAY NOT
  REPORT WEATHER SUCH AS PRECIPITATION OR FOG.

INZ001>027-250800-
NORTHERN INDIANA

CITY           SKY/WX    TMP DP  RH WIND       PRES   REMARKS
GARY*          MOCLDY    75  62  62 SE9G18    29.90F
VALPARAISO     MOCLDY    73  60  63 S13       29.93F
MICHIGAN CITY* MOCLDY    73  57  56 S14G21    29.93F
LAPORTE*       PTCLDY    74  60  61 S12G20    29.95F
KNOX*          PTCLDY    72  55  56 S14G22    29.94F
SOUTH BEND     PTCLDY    72  57  59 S12       29.96F
GOSHEN         CLEAR     71  56  58 S14       29.98F
MONTICELLO*    MOCLDY    74  62  65 S12G20    29.95F
LOGANSPORT*    PTCLDY    72  54  53 S16G22    29.98F
ROCHESTER*     CLEAR     72  59  64 S8        29.98F
WARSAW*        CLEAR     70  55  60 CALM      30.00F
ANGOLA*        CLEAR     70  55  60 S10       30.01F
FORT WAYNE     PTCLDY    70  55  59 S14       30.03F
HUNTINGTON*    CLEAR     70  56  60 S7        30.01F
PERU/GRISSOM   CLEAR     72  59  64 S13       29.97F
MARION*        PTCLDY    71  54  56 S15       30.02F

$$
INZ028>050-250800-
CENTRAL INDIANA

CITY           SKY/WX    TMP DP  RH WIND       PRES   REMARKS
LAFAYETTE      MOCLDY    72  60  66 S8        29.95F
KOKOMO*        CLEAR     72  57  60 S13       30.00F
MUNCIE*        PTCLDY    73  56  54 S13       30.03F
INDIANAPOLIS   CLOUDY    73  59  61 S17       30.00F

$$
MIZ043>046-050>051-056>058-064>065-071>073-077>080-250800-
SOUTHWEST LOWER MICHIGAN

CITY           SKY/WX    TMP DP  RH WIND       PRES   REMARKS
BATTLE CREEK   CLEAR     71  55  56 S12       29.99F
BENTON HARBOR  PTCLDY    72  58  61 S13G21    29.92F
COLDWATER*     CLEAR     71  53  52 S7        30.00F
HILLSDALE*     PTCLDY    70  53  56 S8        30.03F
HOLLAND        PTCLDY    71  57  61 S12       29.93F
GRAND RAPIDS   CLOUDY    71  55  56 S13       29.95F
KALAMAZOO      CLEAR     71  55  56 S13       29.97F
STURGIS*       CLEAR     70  55  60 S14       29.99F
THREE RIVERS*  FAIR      70  55  59 S10       29.98F

$$
OHZ001>008-015>018-024>025-250800-
NORTHWEST OHIO

CITY           SKY/WX    TMP DP  RH WIND       PRES   REMARKS
WAUSEON*       FAIR      68  52  56 S10       30.03F
DEFIANCE       CLEAR     70  52  52 S10       30.03F
FINDLAY        CLEAR     66  51  58 S10       30.06F
TOLEDO EXPRESS PTCLDY    67  50  54 S7        30.04F
TOLEDO METCALF PTCLDY    69  49  48 S14       30.05F
LIMA           PTCLDY    68  50  52 S12       30.07F

$$
AND FOR LAKE MICHIGAN COASTAL AND OPEN LAKE BUOY OBSERVATIONS

STATION/POSITION TEMP    WIND        PRES    VSBY  WAVE
                 AIR SEA DIR/SP/G                  HT/PER
                 (F)     (DEG/KT/KT) (MB)    (MI)  (FT/S)
CALUMET HARBOR    74     170/ 10/ 18   N/A
MICHIGAN CITY     74     150/ 17/ 22   N/A
BURNS HARBOR      74     180/ 11/ 22 1013.2S
SAINT JOSEPH      73     160/  5/ 10 1013.9F
SOUTH LAKE BUOY   48 38  170/ 14/ 16 1012.3F         1
4 MI NW BRIDGMAN  67 54  200/ 14/ 19   N/A           2/ 3
MICHIGAN CITY     68 53  190/ 16/ 21   N/A           2/ 2

$$
&&



USA.gov is the U.S. government's official web portal to all federal, state and local government web resources and services.